[[[{"header":{"parameterUnit":"kt","parameterCategory":2,"dx":1,"dy":1,"la1":30.253999710083008,"la2":30.299108505249023,"lo1":-89.0895004272461,"lo2":-89.04439544677734,"nx":28,"ny":28,"refTime":"2022-10-12T21:00:00:Z","depth":"0","parameterNumber":2,"parameterNumberName":"U-component_of_CURRENTS"},"data":[0.508,0.499,0.5037,0.4859,0.4808,0.4571,0.4453,0.421,0.4131,0.3961,0.399,0.4166,0.4644,0.5314,0.5749,0.5852,0.5727,0.5754,0.5681,0.5883,0.5886,0.5889,0.5905,0.5858,0.5858,0.5393,0.539,0.5388,0.5235,0.5231,0.5211,0.5123,0.5029,0.5056,0.4922,0.4775,0.4574,0.4526,0.4469,0.467,0.4909,0.5325,0.5739,0.5917,0.5927,0.595,0.5816,0.5735,0.5963,0.5982,0.5952,0.5952,0.5952,0.5952,0.5952,0.5952,0.549,0.5438,0.5433,0.5376,0.532,0.5212,0.5103,0.5083,0.4965,0.4827,0.4993,0.4939,0.527,0.5573,0.5779,0.6045,0.5924,0.6011,0.5979,0.5894,0.5818,0.6082,0.6044,0.6044,0.6044,0.6045,0.6045,0,0.5658,0.5671,0.5644,0.5594,0.5534,0.5467,0.544,0.5389,0.542,0.5363,0.5323,0.5322,0.553,0.5632,0.5827,0.5912,0.5949,0.6023,0.602,0.5966,0.5887,0.5811,0.606,0.5984,0.5984,0.5985,0.5985,0.5985,0.5862,0.5821,0.582,0.5776,0.5768,0.5724,0.5676,0.5723,0.5687,0.5686,0.5625,0.5678,0.5668,0.5771,0.593,0.6019,0.5965,0.6021,0.6054,0.607,0.6055,0.5978,0.5903,0.5986,0.5986,0.5986,0.5985,0,0.5973,0.6003,0.5941,0.596,0.5949,0.5891,0.5879,0.5829,0.5866,0.5781,0.5775,0.5838,0.5876,0.5958,0.5974,0.6028,0.6001,0.605,0.603,0.6039,0.609,0.6072,0.5904,0.5811,0.6063,0.6064,0.6064,0,0.6145,0.6089,0.6135,0.6096,0.6022,0.6065,0.5989,0.5998,0.5989,0.5918,0.6008,0.5964,0.604,0.6041,0.6078,0.6094,0.6058,0.6115,0.6124,0.61,0.6103,0.6092,0.6074,0.6061,0.6061,0.6062,0.6062,0,0.6274,0.6247,0.619,0.6181,0.6179,0.6152,0.6152,0.6145,0.6103,0.6105,0.6091,0.6092,0.6073,0.6082,0.6119,0.6139,0.6091,0.6119,0.6141,0.6145,0.6103,0.6107,0.6038,0.6063,0.6063,0.6063,0.6063,0,0.6391,0.638,0.6312,0.6299,0.6293,0.6256,0.6226,0.6193,0.6182,0.619,0.6182,0.6196,0.6168,0.621,0.618,0.6208,0.6201,0.6203,0.6201,0.6237,0.628,0.6204,0.6148,0.6147,0.6204,0.6205,0.6206,0,0.65,0.6446,0.6468,0.6392,0.6375,0.6411,0.6367,0.6358,0.636,0.6327,0.6328,0.628,0.6319,0.6306,0.6292,0.6287,0.6256,0.6296,0.6254,0.6252,0.6296,0.6252,0.6219,0.6166,0.622,0.6219,0.6218,0,0.6583,0.6597,0.6576,0.6566,0.6568,0.6543,0.6508,0.6489,0.6465,0.6452,0.6408,0.6348,0.6376,0.6341,0.6342,0.6322,0.6281,0.6343,0.6342,0.6321,0.6222,0.6267,0.6262,0.6292,0.629,0.6289,0.6229,0,0.6705,0.668,0.6649,0.664,0.6626,0.6596,0.6616,0.6599,0.6608,0.66,0.6544,0.6513,0.6461,0.6451,0.6439,0.6378,0.6386,0.64,0.6406,0.6375,0.6355,0.6346,0.6457,0.6457,0.6457,0.6457,0,0,0.6787,0.6766,0.6792,0.6763,0.675,0.6795,0.6764,0.6741,0.6711,0.6694,0.6708,0.661,0.6575,0.649,0.6475,0.6462,0.6451,0.6445,0.6397,0.639,0.6384,0.6363,0.6354,0.6458,0.6458,0.6458,0.6458,0,0.6835,0.6852,0.6816,0.6814,0.6813,0.6812,0.6817,0.681,0.679,0.6739,0.6725,0.6692,0.6602,0.6557,0.6523,0.6473,0.6456,0.6463,0.6428,0.6401,0.6394,0.6387,0.6366,0.6358,0.6459,0.6459,0.6459,0,0.6923,0.6922,0.6911,0.6908,0.6894,0.6871,0.6903,0.687,0.6837,0.6828,0.6751,0.6729,0.6671,0.6595,0.6564,0.6569,0.6468,0.6494,0.6493,0.6474,0.6445,0.6437,0.643,0.6519,0.6519,0.6519,0,0,0.6956,0.6932,0.696,0.6922,0.6928,0.692,0.6898,0.6893,0.6859,0.6835,0.6794,0.6745,0.6688,0.6653,0.6596,0.6532,0.6518,0.6502,0.6499,0.6497,0.6477,0.6448,0.644,0.652,0.652,0.652,0,0,0.6961,0.6979,0.7003,0.6972,0.6964,0.6931,0.6885,0.6898,0.6842,0.6837,0.6797,0.6779,0.6711,0.6684,0.6701,0.659,0.6603,0.6598,0.6599,0.6594,0.6592,0.658,0.6672,0,0,0,0,0,0.7023,0.6987,0.7011,0.7009,0.6974,0.6938,0.6926,0.6892,0.6907,0.6874,0.6836,0.6814,0.6679,0.6693,0.6675,0.6638,0.653,0.6528,0.6526,0.6512,0.6508,0.6505,0,0,0,0,0,0,0.7023,0.7023,0.7011,0.6988,0.698,0.6939,0.6939,0.6927,0.6907,0.6903,0.6824,0.6811,0.6766,0.6698,0.6683,0.6648,0.6677,0.6529,0.6528,0.6526,0.6511,0.6508,0.6505,0,0,0,0,0,0.7022,0.7022,0.6986,0.6986,0.6978,0.6935,0.6939,0.693,0.6903,0.684,0.6827,0.6883,0.6767,0.6751,0.6689,0.6656,0.6687,0.6681,0.6528,0.6527,0.6526,0.6509,0,0,0,0,0,0,0.7022,0.6987,0.6982,0.6976,0.6996,0.6934,0.6927,0.6931,0.6839,0.6828,0.6897,0.6895,0.6767,0.6755,0.6743,0.6661,0.6695,0.6689,0.6686,0.6527,0.6526,0.6526,0,0,0,0,0,0,0.6987,0.6983,0.6978,0.6994,0.6989,0.6933,0.6928,0.687,0.6838,0.6898,0.6895,0.6897,0.6789,0.6757,0.6748,0.6657,0.6701,0.6696,0.6692,0.669,0.6527,0.6526,0,0,0,0,0,0,0.6984,0.698,0.6994,0.6991,0.6987,0.6916,0.6878,0.6841,0.6864,0.6901,0.6865,0.6866,0.6793,0.6782,0.6751,0.6665,0.6659,0.6701,0.6698,0.6695,0.6693,0,0,0,0,0,0,0,0.6981,0.7028,0.7025,0.6988,0.6984,0.693,0.6927,0.6924,0.6864,0.6865,0.6865,0.6866,0.6732,0.6726,0.672,0.6671,0,0,0.6702,0.6699,0,0,0,0,0,0,0,0,0.7028,0.7028,0.7025,0.7024,0.7024,0.6929,0.6927,0.6925,0.6864,0.6865,0.6865,0.6865,0.673,0.6725,0.6721,0,0,0,0,0,0,0,0,0,0,0,0,0,0,0,0.7025,0.7024,0,0.6929,0.6927,0.6925,0.6864,0.6865,0.6865,0.6865,0.6729,0.6725,0.6721,0,0,0,0,0,0,0,0,0,0,0,0,0,0,0,0,0,0,0,0,0,0,0,0,0,0,0,0,0,0,0,0,0,0,0,0,0,0,0,0,0,0,0,0,0,0,0,0,0,0,0,0,0,0,0,0,0,0,0,0,0,0,0,0,0,0,0,0,0]}],[{"header":{"parameterUnit":"kt","parameterCategory":2,"dx":1,"dy":1,"la1":30.253999710083008,"la2":30.299108505249023,"lo1":-89.0895004272461,"lo2":-89.04439544677734,"nx":28,"ny":28,"refTime":"2022-10-12T21:00:00:Z","depth":"0","parameterNumber":3,"parameterNumberName":"V-component_of_CURRENTS"},"data":[-0.5536,-0.5536,-0.5639,-0.5633,-0.569,-0.5554,-0.5432,-0.4987,-0.4634,-0.3828,-0.3358,-0.3179,-0.3027,-0.3086,-0.316,-0.3301,-0.3565,-0.3602,-0.3911,-0.3884,-0.3943,-0.3999,-0.3929,-0.3437,-0.3436,-0.3757,-0.3758,-0.3758,-0.5678,-0.5744,-0.5834,-0.5911,-0.5918,-0.5984,-0.588,-0.5656,-0.5267,-0.485,-0.4557,-0.4133,-0.3893,-0.3898,-0.3785,-0.3908,-0.4145,-0.4042,-0.4097,-0.4199,-0.4326,-0.4251,-0.382,-0.382,-0.382,-0.382,-0.382,-0.3821,-0.5924,-0.5936,-0.6061,-0.6117,-0.616,-0.6119,-0.6039,-0.5938,-0.5752,-0.5346,-0.551,-0.5079,-0.4923,-0.4749,-0.4821,-0.4693,-0.4968,-0.4657,-0.4655,-0.4797,-0.4787,-0.4972,-0.4707,-0.471,-0.4714,-0.4717,-0.4719,0,-0.6092,-0.6156,-0.6226,-0.6325,-0.6339,-0.6342,-0.6357,-0.6306,-0.6282,-0.6128,-0.5934,-0.5794,-0.5662,-0.5376,-0.5305,-0.5289,-0.5351,-0.5323,-0.5323,-0.4867,-0.4939,-0.4979,-0.5279,-0.5051,-0.5057,-0.5062,-0.5065,-0.5067,-0.6254,-0.6293,-0.645,-0.6464,-0.6509,-0.6532,-0.6518,-0.656,-0.6509,-0.6383,-0.6292,-0.6166,-0.5995,-0.5852,-0.578,-0.5699,-0.5754,-0.5458,-0.5482,-0.5443,-0.5414,-0.5534,-0.5583,-0.5132,-0.5123,-0.5117,-0.5111,0,-0.6314,-0.6444,-0.6513,-0.6639,-0.6657,-0.6644,-0.6663,-0.6618,-0.6597,-0.6459,-0.6427,-0.6348,-0.6227,-0.6174,-0.6097,-0.6081,-0.5926,-0.5967,-0.5688,-0.5632,-0.5515,-0.5503,-0.5415,-0.5449,-0.5843,-0.584,-0.5837,0,-0.6457,-0.6482,-0.6654,-0.6681,-0.6687,-0.6746,-0.6701,-0.6689,-0.6633,-0.6524,-0.652,-0.6417,-0.6381,-0.6291,-0.6281,-0.6154,-0.619,-0.6114,-0.6089,-0.5854,-0.5827,-0.5748,-0.5725,-0.6206,-0.6206,-0.6207,-0.6207,0,-0.6497,-0.6612,-0.6675,-0.6699,-0.6772,-0.6767,-0.6771,-0.6712,-0.6657,-0.6589,-0.6533,-0.6468,-0.6395,-0.6375,-0.6301,-0.6336,-0.6204,-0.6243,-0.6133,-0.6126,-0.5844,-0.5813,-0.5687,-0.6208,-0.6208,-0.6208,-0.6209,0,-0.6571,-0.6662,-0.6738,-0.6799,-0.6803,-0.68,-0.6744,-0.6723,-0.664,-0.6604,-0.6542,-0.6479,-0.6417,-0.6428,-0.6347,-0.6373,-0.6355,-0.632,-0.6316,-0.6194,-0.6181,-0.5837,-0.5761,-0.5716,-0.6272,-0.6273,-0.6274,0,-0.6549,-0.6674,-0.6733,-0.6759,-0.6801,-0.6776,-0.6757,-0.6714,-0.6665,-0.6607,-0.6535,-0.6468,-0.6467,-0.6438,-0.6426,-0.6359,-0.6352,-0.6387,-0.6298,-0.6295,-0.6184,-0.6179,-0.5891,-0.579,-0.6283,-0.6282,-0.6282,0,-0.6526,-0.6705,-0.6687,-0.6712,-0.6726,-0.6726,-0.6721,-0.6676,-0.6637,-0.6609,-0.6548,-0.6498,-0.6464,-0.643,-0.6394,-0.6379,-0.6366,-0.6377,-0.6374,-0.6326,-0.6308,-0.6206,-0.6189,-0.6367,-0.6366,-0.6366,-0.6289,0,-0.6578,-0.6629,-0.6665,-0.6687,-0.6693,-0.6714,-0.6679,-0.6672,-0.6632,-0.6579,-0.6529,-0.6481,-0.6424,-0.6422,-0.6391,-0.6369,-0.6357,-0.6351,-0.6319,-0.6352,-0.6317,-0.6311,-0.6368,-0.6367,-0.6366,-0.6366,0,0,-0.6457,-0.6564,-0.6583,-0.6623,-0.6621,-0.6582,-0.66,-0.6571,-0.6542,-0.6512,-0.6503,-0.6417,-0.639,-0.6328,-0.6337,-0.6345,-0.6326,-0.6335,-0.6351,-0.635,-0.6349,-0.6316,-0.6312,-0.6364,-0.6364,-0.6364,-0.6363,0,-0.6467,-0.6517,-0.6571,-0.6576,-0.6583,-0.6549,-0.6565,-0.654,-0.6504,-0.6499,-0.6421,-0.6396,-0.6377,-0.6316,-0.6285,-0.6336,-0.6287,-0.6347,-0.6373,-0.6346,-0.6346,-0.6346,-0.6314,-0.631,-0.6362,-0.6362,-0.6362,0,-0.6396,-0.6425,-0.6456,-0.6501,-0.6484,-0.6491,-0.6439,-0.6455,-0.6435,-0.6368,-0.6347,-0.6311,-0.6259,-0.6252,-0.6254,-0.6246,-0.6257,-0.6271,-0.6276,-0.6257,-0.6226,-0.6227,-0.6228,-0.6209,-0.6208,-0.6208,0,0,-0.6366,-0.6426,-0.6426,-0.649,-0.6497,-0.6449,-0.6448,-0.6411,-0.6381,-0.6361,-0.6322,-0.6285,-0.6246,-0.6244,-0.6215,-0.6245,-0.6211,-0.6252,-0.6259,-0.6265,-0.625,-0.6222,-0.6224,-0.6206,-0.6206,-0.6206,0,0,-0.6331,-0.6364,-0.6347,-0.6435,-0.6423,-0.6378,-0.6394,-0.6357,-0.6324,-0.6311,-0.6241,-0.6229,-0.6224,-0.6216,-0.6195,-0.6201,-0.6173,-0.6177,-0.6199,-0.6208,-0.6215,-0.6194,-0.6118,0,0,0,0,0,-0.6289,-0.637,-0.6356,-0.6369,-0.6389,-0.6398,-0.6391,-0.6332,-0.6294,-0.6303,-0.6251,-0.621,-0.6178,-0.6158,-0.6156,-0.6165,-0.618,-0.6185,-0.6189,-0.6224,-0.6233,-0.6241,0,0,0,0,0,0,-0.6294,-0.6311,-0.6353,-0.6325,-0.6328,-0.6395,-0.631,-0.6293,-0.629,-0.6278,-0.6219,-0.6208,-0.6152,-0.6156,-0.6155,-0.6164,-0.6118,-0.6182,-0.6186,-0.6189,-0.6227,-0.6235,-0.6241,0,0,0,0,0,-0.6297,-0.6311,-0.6374,-0.632,-0.6323,-0.6266,-0.6307,-0.6292,-0.6277,-0.6221,-0.6207,-0.6236,-0.6155,-0.615,-0.6155,-0.6165,-0.6118,-0.6118,-0.6185,-0.6188,-0.619,-0.6231,0,0,0,0,0,0,-0.63,-0.6267,-0.6371,-0.6368,-0.6299,-0.6258,-0.6255,-0.6292,-0.6218,-0.6206,-0.6235,-0.6227,-0.6157,-0.6153,-0.615,-0.6167,-0.6118,-0.6118,-0.6118,-0.6187,-0.6189,-0.6191,0,0,0,0,0,0,-0.6259,-0.6265,-0.6369,-0.6347,-0.6339,-0.6252,-0.625,-0.6259,-0.6218,-0.6233,-0.6225,-0.6233,-0.6176,-0.6156,-0.6153,-0.6167,-0.6119,-0.6118,-0.6118,-0.6118,-0.6189,-0.6191,0,0,0,0,0,0,-0.6259,-0.6264,-0.6346,-0.6341,-0.6334,-0.6279,-0.6256,-0.6282,-0.6196,-0.6236,-0.6189,-0.6186,-0.6181,-0.6176,-0.6155,-0.6171,-0.6168,-0.6119,-0.6118,-0.6118,-0.6118,0,0,0,0,0,0,0,-0.6259,-0.6261,-0.6406,-0.6336,-0.633,-0.6336,-0.6334,-0.6332,-0.6195,-0.6192,-0.619,-0.6187,-0.6119,-0.6119,-0.6119,-0.6174,0,0,-0.6119,-0.6118,0,0,0,0,0,0,0,0,-0.6256,-0.626,-0.6406,-0.6406,-0.6406,-0.6336,-0.6334,-0.6332,-0.6195,-0.6192,-0.619,-0.6188,-0.6119,-0.6119,-0.6119,0,0,0,0,0,0,0,0,0,0,0,0,0,0,0,-0.6406,-0.6406,0,-0.6336,-0.6334,-0.6333,-0.6194,-0.6192,-0.6191,-0.6189,-0.6119,-0.6119,-0.6119,0,0,0,0,0,0,0,0,0,0,0,0,0,0,0,0,0,0,0,0,0,0,0,0,0,0,0,0,0,0,0,0,0,0,0,0,0,0,0,0,0,0,0,0,0,0,0,0,0,0,0,0,0,0,0,0,0,0,0,0,0,0,0,0,0,0,0,0,0]}]],[[{"header":{"parameterUnit":"kt","parameterCategory":2,"dx":1,"dy":1,"la1":30.253999710083008,"la2":30.299108505249023,"lo1":-89.0895004272461,"lo2":-89.04439544677734,"nx":28,"ny":28,"refTime":"2022-10-12T21:00:00:Z","depth":"2","parameterNumber":2,"parameterNumberName":"U-component_of_CURRENTS"},"data":[0.3188,0.3174,0.3132,0.3008,0.2993,0.2856,0.2745,0.2526,0.2379,0.198,0.1737,0.1944,0.2012,0.1723,0.1873,0.1764,0.2145,0.1755,0.2521,0.2622,0.2696,0.293,0.2685,0,0,0,0,0,0.321,0.3211,0.3254,0.3221,0.3165,0.3194,0.304,0.289,0.271,0.2603,0.2578,0.2187,0.2212,0.2348,0.219,0.2312,0.2386,0.2348,0.2383,0.2462,0.2535,0.2329,0.1744,0.1743,0.1742,0.1742,0,0,0.3259,0.3275,0.3336,0.333,0.3346,0.3224,0.316,0.307,0.2967,0.2825,0.2962,0.2836,0.2925,0.288,0.3018,0.3042,0.3282,0.3216,0.3249,0.3293,0.3118,0.297,0.2744,0.2749,0.2754,0.2758,0.2761,0,0.3238,0.327,0.3345,0.3381,0.3392,0.3374,0.3341,0.3266,0.3239,0.323,0.319,0.3249,0.3382,0.334,0.3498,0.3606,0.3804,0.3676,0.438,0.3593,0.3454,0.3415,0.3439,0.3351,0.336,0.3366,0.3371,0.3375,0.3181,0.3243,0.335,0.3381,0.3422,0.3459,0.3452,0.3459,0.3417,0.3429,0.3397,0.3532,0.3614,0.3868,0.3947,0.4157,0.4419,0.388,0.3853,0.4388,0.4349,0.434,0.433,0.347,0.3458,0.3448,0.344,0,0.3134,0.3214,0.3324,0.3423,0.3438,0.3482,0.3485,0.3491,0.3518,0.3506,0.3521,0.3638,0.3819,0.4042,0.4334,0.4373,0.4539,0.4549,0.4095,0.4006,0.438,0.4362,0.4459,0.4451,0.4445,0.4439,0.4434,0,0.3089,0.3181,0.3268,0.3333,0.3413,0.3466,0.3522,0.3586,0.3609,0.3603,0.3732,0.3754,0.4023,0.4157,0.4366,0.4472,0.4613,0.4558,0.4525,0.4184,0.4128,0.4697,0.4677,0.486,0.4859,0.4858,0.4857,0,0.3,0.3137,0.3256,0.33,0.341,0.347,0.3519,0.3606,0.3633,0.3727,0.3723,0.3934,0.3996,0.4207,0.439,0.4395,0.4621,0.4634,0.4518,0.4499,0.4192,0.4135,0.4856,0.4856,0.4856,0.4856,0.4855,0,0.296,0.3037,0.3177,0.3285,0.3317,0.3377,0.3505,0.3579,0.3679,0.3716,0.3833,0.3883,0.4089,0.4103,0.439,0.4305,0.4423,0.4498,0.4503,0.4271,0.4163,0.3809,0.3882,0.4486,0.4483,0.4481,0.4478,0,0.2891,0.3016,0.3043,0.3181,0.3258,0.3321,0.3409,0.3504,0.3571,0.3642,0.3785,0.3884,0.3983,0.4024,0.4156,0.4273,0.438,0.4286,0.4381,0.4385,0.4059,0.4214,0.3815,0.3864,0.4444,0.4447,0.445,0,0.2815,0.2917,0.2941,0.2999,0.3099,0.3138,0.3274,0.3382,0.3436,0.3561,0.3636,0.3906,0.3919,0.4011,0.4078,0.4171,0.4317,0.4154,0.4157,0.4109,0.4459,0.4196,0.4194,0.4298,0.4302,0.4306,0.4423,0,0.279,0.2855,0.2892,0.2961,0.3012,0.3087,0.314,0.3228,0.3288,0.3319,0.3513,0.3639,0.3783,0.3858,0.3909,0.4097,0.4055,0.4039,0.3918,0.4085,0.4118,0.4139,0.3871,0.387,0.387,0.3869,0,0,0.2727,0.2768,0.2767,0.2822,0.2871,0.2898,0.2969,0.3022,0.312,0.3178,0.3175,0.3452,0.3549,0.3734,0.3824,0.3875,0.3886,0.3792,0.4028,0.4046,0.4062,0.4099,0.412,0.3868,0.3868,0.3867,0.3867,0,0.2684,0.2704,0.2741,0.2776,0.2835,0.2853,0.2886,0.2929,0.2974,0.3111,0.3162,0.331,0.3459,0.3549,0.3617,0.3841,0.3775,0.388,0.3934,0.4018,0.4036,0.4053,0.4092,0.4112,0.3865,0.3866,0.3866,0,0.2631,0.2639,0.2649,0.2686,0.2717,0.2771,0.2738,0.2803,0.2867,0.2877,0.3017,0.3105,0.3219,0.3372,0.3454,0.3399,0.3656,0.3587,0.3597,0.3611,0.3694,0.3718,0.3739,0.3447,0.3444,0.3442,0,0,0.2607,0.2626,0.2635,0.2673,0.2697,0.2719,0.2752,0.2762,0.2826,0.2865,0.2918,0.3026,0.3151,0.3205,0.3315,0.3449,0.3465,0.3527,0.3547,0.3563,0.3584,0.3672,0.3697,0.3434,0.3433,0.3433,0,0,0.2584,0.2578,0.2585,0.2618,0.2653,0.2656,0.2709,0.2718,0.2815,0.2841,0.286,0.2881,0.3059,0.3093,0.298,0.3255,0.3189,0.3214,0.3173,0.3198,0.3218,0.3206,0.2885,0,0,0,0,0,0.2542,0.2574,0.2581,0.2587,0.2616,0.2654,0.2663,0.2678,0.2684,0.2726,0.2813,0.2766,0.3056,0.2954,0.2974,0.3041,0.3323,0.3342,0.3361,0.3347,0.3374,0.3397,0,0,0,0,0,0,0.2544,0.2547,0.2581,0.2578,0.2586,0.2651,0.2611,0.2616,0.2679,0.268,0.2754,0.2766,0.2764,0.2941,0.296,0.3023,0.2879,0.333,0.3347,0.3362,0.3356,0.3378,0.3397,0,0,0,0,0,0.2546,0.2549,0.2585,0.2579,0.2586,0.2614,0.261,0.2614,0.2673,0.2699,0.2711,0.2689,0.2763,0.2784,0.2952,0.3015,0.2866,0.2873,0.3341,0.3354,0.3366,0.3367,0,0,0,0,0,0,0.2547,0.2557,0.2588,0.2592,0.2568,0.2613,0.2616,0.2612,0.269,0.2701,0.2629,0.2628,0.2763,0.2779,0.2795,0.3013,0.2855,0.2862,0.2867,0.3351,0.3362,0.3371,0,0,0,0,0,0,0.2556,0.256,0.259,0.2575,0.2578,0.2612,0.2615,0.2693,0.2693,0.2617,0.2617,0.2628,0.2762,0.2776,0.2789,0.2909,0.2846,0.2853,0.2858,0.2861,0.336,0.3368,0,0,0,0,0,0,0.2559,0.2562,0.2574,0.2576,0.2578,0.2629,0.2686,0.2728,0.264,0.2614,0.2637,0.2636,0.2761,0.2772,0.2784,0.2899,0.2907,0.2847,0.2851,0.2855,0.2857,0,0,0,0,0,0,0,0.2561,0.2524,0.2563,0.2577,0.2579,0.2635,0.2636,0.2637,0.2639,0.2638,0.2637,0.2636,0.2806,0.2814,0.2822,0.2891,0,0,0.2846,0.2849,0,0,0,0,0,0,0,0,0.2524,0.2524,0.2564,0.2565,0.2566,0.2635,0.2636,0.2637,0.2639,0.2638,0.2637,0.2637,0.2808,0.2815,0.2821,0,0,0,0,0,0,0,0,0,0,0,0,0,0,0,0.2564,0.2565,0,0.2635,0.2636,0.2636,0.2639,0.2638,0.2638,0.2637,0.281,0.2815,0.282,0,0,0,0,0,0,0,0,0,0,0,0,0,0,0,0,0,0,0,0,0,0,0,0,0,0,0,0,0,0,0,0,0,0,0,0,0,0,0,0,0,0,0,0,0,0,0,0,0,0,0,0,0,0,0,0,0,0,0,0,0,0,0,0,0,0,0,0,0]}],[{"header":{"parameterUnit":"kt","parameterCategory":2,"dx":1,"dy":1,"la1":30.253999710083008,"la2":30.299108505249023,"lo1":-89.0895004272461,"lo2":-89.04439544677734,"nx":28,"ny":28,"refTime":"2022-10-12T21:00:00:Z","depth":"2","parameterNumber":3,"parameterNumberName":"V-component_of_CURRENTS"},"data":[0.178,0.1799,0.183,0.1745,0.1674,0.1615,0.1555,0.1479,0.156,0.1673,0.1856,0.2207,0.1932,0.147,0.0964,0.0528,0.0607,0.0461,0.0874,0.1062,0.1093,0.0945,0.0943,0,0,0,0,0,0.1814,0.1836,0.1867,0.1849,0.1859,0.185,0.1839,0.1797,0.1678,0.1844,0.1797,0.1813,0.1656,0.1456,0.0832,0.0507,0.0514,0.0455,0.0547,0.0583,0.0614,0.0582,0.0267,0.0264,0.0261,0.0259,0,0,0.1887,0.1915,0.1948,0.1936,0.196,0.1968,0.1918,0.1956,0.1926,0.1822,0.1855,0.1857,0.1724,0.1524,0.115,0.0809,0.095,0.0923,0.0939,0.0958,0.0941,0.0939,0.0723,0.0724,0.0725,0.0725,0.0726,0,0.1955,0.1931,0.2001,0.2006,0.2001,0.2055,0.2037,0.2052,0.2068,0.1987,0.187,0.1833,0.1632,0.1485,0.1302,0.121,0.1263,0.1148,0.1377,0.1242,0.125,0.119,0.1207,0.1094,0.1097,0.1099,0.1101,0.1102,0.1926,0.1977,0.2038,0.2043,0.2029,0.2029,0.2086,0.214,0.2159,0.2054,0.2032,0.1912,0.1883,0.1695,0.1528,0.1395,0.148,0.1232,0.123,0.1454,0.1389,0.1398,0.1406,0.1136,0.1132,0.1128,0.1125,0,0.1883,0.1957,0.2057,0.2142,0.2138,0.2146,0.2161,0.2233,0.2194,0.2153,0.2114,0.2124,0.1991,0.1965,0.1835,0.1745,0.1624,0.1543,0.1506,0.1427,0.143,0.1432,0.134,0.1335,0.1331,0.1327,0.1324,0,0.1852,0.1924,0.1986,0.2044,0.2127,0.2197,0.2241,0.2304,0.2331,0.2331,0.231,0.2262,0.2195,0.211,0.2021,0.1807,0.1855,0.1664,0.1588,0.1545,0.1528,0.1717,0.1714,0.1755,0.1756,0.1756,0.1757,0,0.1725,0.1903,0.2014,0.2061,0.2227,0.2237,0.2275,0.2363,0.241,0.2393,0.2331,0.2367,0.2246,0.2165,0.2016,0.1991,0.1853,0.1811,0.1628,0.1618,0.1519,0.1498,0.1758,0.1758,0.1758,0.1758,0.1759,0,0.1694,0.1803,0.196,0.2109,0.2143,0.2182,0.2285,0.2368,0.2421,0.2389,0.2363,0.2304,0.2303,0.2183,0.2091,0.2062,0.1942,0.1863,0.1855,0.1717,0.1602,0.1426,0.1453,0.1718,0.1719,0.1719,0.1719,0,0.1553,0.1746,0.1808,0.1949,0.2046,0.2058,0.2175,0.2235,0.2216,0.223,0.2214,0.2209,0.2161,0.2092,0.207,0.1974,0.1943,0.1977,0.1735,0.1731,0.1576,0.1631,0.1564,0.1467,0.1723,0.1723,0.1722,0,0.1451,0.1627,0.1629,0.1687,0.1777,0.1832,0.1939,0.2037,0.2067,0.2039,0.2068,0.215,0.2048,0.2074,0.2031,0.1991,0.1948,0.1835,0.183,0.1758,0.1775,0.165,0.1635,0.1817,0.1818,0.1818,0.1725,0,0.1451,0.151,0.1555,0.1655,0.1703,0.1766,0.1809,0.1832,0.1767,0.1778,0.1822,0.1822,0.184,0.1846,0.1831,0.1879,0.1783,0.173,0.1629,0.1718,0.1668,0.1666,0.1664,0.1662,0.1661,0.166,0,0,0.1292,0.1409,0.141,0.15,0.1539,0.1494,0.1582,0.1608,0.1629,0.1646,0.1545,0.1608,0.1608,0.1728,0.1759,0.1758,0.1663,0.165,0.1696,0.1701,0.1704,0.166,0.166,0.1657,0.1657,0.1656,0.1656,0,0.1323,0.1308,0.1377,0.1425,0.146,0.1487,0.1486,0.1509,0.1492,0.1539,0.1502,0.1522,0.1518,0.1573,0.1594,0.1725,0.1565,0.1674,0.1737,0.1685,0.1691,0.1697,0.1654,0.1655,0.1653,0.1653,0.1653,0,0.1257,0.1296,0.1311,0.1386,0.1397,0.1478,0.1395,0.1418,0.147,0.1379,0.1402,0.1384,0.1403,0.1458,0.1465,0.1414,0.1464,0.1463,0.1472,0.1498,0.1441,0.145,0.1459,0.1339,0.1338,0.1337,0,0,0.1261,0.1302,0.1354,0.1389,0.1407,0.1404,0.1416,0.1391,0.1403,0.1386,0.1347,0.1327,0.1369,0.1347,0.1381,0.1417,0.1374,0.1423,0.1438,0.145,0.1482,0.143,0.144,0.1333,0.1332,0.1332,0,0,0.126,0.1318,0.1285,0.134,0.1381,0.1425,0.1431,0.1395,0.1388,0.1334,0.1287,0.1276,0.1308,0.1285,0.1235,0.131,0.1253,0.1263,0.1298,0.1316,0.1331,0.1361,0.1127,0,0,0,0,0,0.128,0.1325,0.1296,0.1306,0.136,0.1449,0.1455,0.1408,0.1316,0.1337,0.1305,0.1217,0.1268,0.1223,0.1221,0.1226,0.1275,0.1285,0.1295,0.1353,0.1373,0.1389,0,0,0,0,0,0,0.1284,0.1299,0.1296,0.1344,0.1356,0.1446,0.1353,0.1343,0.1313,0.1296,0.1235,0.1219,0.1194,0.1218,0.1217,0.1223,0.1127,0.1279,0.1288,0.1296,0.136,0.1376,0.1389,0,0,0,0,0,0.1288,0.13,0.1389,0.1343,0.1353,0.1319,0.1347,0.1338,0.1295,0.1274,0.1255,0.1249,0.12,0.1191,0.1217,0.1225,0.1127,0.1127,0.1285,0.1292,0.1298,0.1368,0,0,0,0,0,0,0.129,0.1294,0.139,0.1392,0.1289,0.1311,0.1311,0.1334,0.127,0.1256,0.1291,0.1279,0.1205,0.1197,0.1191,0.1229,0.1127,0.1127,0.1127,0.129,0.1295,0.13,0,0,0,0,0,0,0.1287,0.1296,0.1391,0.1326,0.132,0.1304,0.1304,0.1323,0.1266,0.1288,0.1278,0.1286,0.1181,0.1202,0.1196,0.1232,0.1127,0.1127,0.1127,0.1127,0.1294,0.1298,0,0,0,0,0,0,0.1291,0.1298,0.1325,0.1321,0.1315,0.1335,0.1316,0.135,0.1279,0.1289,0.1264,0.1257,0.1186,0.1181,0.1201,0.124,0.1234,0.1127,0.1127,0.1127,0.1127,0,0,0,0,0,0,0,0.1293,0.1249,0.1379,0.1316,0.1311,0.1413,0.1413,0.1414,0.1278,0.1272,0.1266,0.126,0.1127,0.1127,0.1127,0.1246,0,0,0.1127,0.1127,0,0,0,0,0,0,0,0,0.1246,0.1249,0.1379,0.1379,0.138,0.1413,0.1413,0.1414,0.1277,0.1272,0.1267,0.1262,0.1127,0.1127,0.1127,0,0,0,0,0,0,0,0,0,0,0,0,0,0,0,0.1379,0.1379,0,0.1413,0.1413,0.1414,0.1276,0.1272,0.1268,0.1264,0.1127,0.1127,0.1127,0,0,0,0,0,0,0,0,0,0,0,0,0,0,0,0,0,0,0,0,0,0,0,0,0,0,0,0,0,0,0,0,0,0,0,0,0,0,0,0,0,0,0,0,0,0,0,0,0,0,0,0,0,0,0,0,0,0,0,0,0,0,0,0,0,0,0,0,0]}]],[[{"header":{"parameterUnit":"kt","parameterCategory":2,"dx":1,"dy":1,"la1":30.253999710083008,"la2":30.299108505249023,"lo1":-89.0895004272461,"lo2":-89.04439544677734,"nx":28,"ny":28,"refTime":"2022-10-12T21:00:00:Z","depth":"4","parameterNumber":2,"parameterNumberName":"U-component_of_CURRENTS"},"data":[-0.0183,-0.0141,-0.0144,-0.0129,-0.0095,-0.0019,0.0059,0.0151,0.0166,0.0278,0.0258,0.0382,0.0347,0.0357,0.0349,0.0358,0.0137,0.0422,0.0423,0.001,-0.0016,-0.0039,0.0304,0,0,0,0,0,-0.0178,-0.0157,-0.0126,-0.0023,0.0029,0.0083,0.0211,0.0304,0.0426,0.0394,0.0457,0.0403,0.0403,0.0359,0.0379,0.037,0.0171,0.0394,0.004,-0.0006,-0.0035,0.0308,0,0,0,0,0,0,-0.0169,-0.0137,-0.0041,0.0046,0.013,0.019,0.0282,0.037,0.0422,0.0503,0.0453,0.0433,0.0409,0.039,0.0204,0.0165,0.0192,0.0098,0.0066,0.0038,0.0328,0.0543,0.0447,0,0,0,0,0,-0.0126,-0.0068,0.0032,0.0116,0.0238,0.0334,0.0474,0.0475,0.0617,0.0655,0.06,0.0578,0.046,0.0333,0.0195,-0.0013,-0.0197,-0.0231,-0.0246,-0.0076,0.0054,-0.0029,-0.0025,-0.0143,-0.0147,-0.0149,-0.0151,0,-0.0084,-0.0024,0.0158,0.0214,0.0311,0.0488,0.0571,0.0723,0.0743,0.0751,0.0694,0.0621,0.0591,0.0241,0.0114,-0.0135,-0.0143,-0.0306,-0.0123,0.0011,-0.0069,-0.0057,-0.0044,-0.0174,-0.0172,-0.017,-0.0168,0,-0.008,0.0011,0.0143,0.035,0.0421,0.0554,0.0706,0.0766,0.0842,0.0802,0.0804,0.0739,0.0598,0.0399,0.0015,-0.0023,-0.0258,-0.0297,-0.0407,-0.0509,-0.0098,-0.0075,-0.0212,-0.0203,-0.0196,-0.019,-0.0185,0,-0.0071,0.0027,0.0192,0.0253,0.0423,0.0578,0.0716,0.0818,0.0856,0.0848,0.088,0.0802,0.0615,0.0394,0.0214,0.0042,-0.0172,-0.0023,-0.0114,-0.0247,-0.0227,-0.0394,-0.0388,-0.0409,-0.0406,-0.0404,-0.0401,0,-0.0129,0.0025,0.0155,0.0208,0.0374,0.052,0.0631,0.0747,0.0792,0.0838,0.0818,0.0768,0.0671,0.0476,0.0266,0.0302,-0.012,-0.0169,-0.0084,-0.0071,-0.0376,-0.0375,-0.0398,-0.0398,-0.0397,-0.0396,-0.0395,0,-0.016,-0.0097,0.0053,0.0216,0.0261,0.0379,0.0572,0.0674,0.0732,0.078,0.0803,0.0746,0.0703,0.0672,0.0399,0.0503,0.0322,0.0148,0.0126,0.0296,0.0189,-0.0254,-0.0166,-0.0162,-0.0158,-0.0155,-0.0152,0,-0.0243,-0.013,-0.0089,0.0068,0.0138,0.0203,0.0345,0.0445,0.0518,0.0577,0.0578,0.0618,0.0662,0.0667,0.0611,0.0393,0.0313,0.0473,-0.0058,-0.0074,0.0165,0.0306,0.0262,-0.0104,-0.011,-0.0115,-0.0118,0,-0.0315,-0.0243,-0.023,-0.0159,-0.0092,-0.0038,0.0119,0.0225,0.0296,0.0395,0.0472,0.0608,0.0553,0.0564,0.0522,0.0439,0.0368,0.035,0.0334,0.0181,0.0015,0.032,0.0319,0.0277,0.0274,0.0271,-0.0084,0,-0.0346,-0.0311,-0.0287,-0.0213,-0.017,-0.0138,-0.0073,0.0001,0.0077,0.011,0.0221,0.0201,0.0248,0.0303,0.0303,0.0329,0.0244,0.0157,0.0022,0.0138,-0.003,-0.0055,0.0163,0.0158,0.0154,0.015,0,0,-0.0426,-0.0384,-0.0408,-0.0358,-0.0317,-0.0365,-0.0292,-0.0256,-0.0225,-0.0171,-0.0151,-0.0054,-0.0059,0.0013,0.0133,0.0103,-0.0016,0.0133,0.0119,0.0117,0.0114,-0.0041,-0.006,0.0143,0.0141,0.014,0.0139,0,-0.0439,-0.0449,-0.0412,-0.0403,-0.0398,-0.0394,-0.0389,-0.0376,-0.0334,-0.0238,-0.0272,-0.0238,-0.0146,-0.0141,-0.0123,0.0039,-0.0112,0.0102,0.0254,0.0089,0.0093,0.0095,-0.0054,-0.0068,0.0128,0.0129,0.0129,0,-0.0477,-0.0473,-0.0464,-0.0465,-0.0467,-0.0422,-0.0488,-0.0485,-0.041,-0.0518,-0.0397,-0.0408,-0.0417,-0.0308,-0.0275,-0.033,-0.0253,-0.0198,-0.0177,-0.0194,-0.0376,-0.0368,-0.0361,-0.0467,-0.0468,-0.0469,0,0,-0.0484,-0.0467,-0.0477,-0.0467,-0.0464,-0.0485,-0.0492,-0.0501,-0.0509,-0.0512,-0.0501,-0.0486,-0.0449,-0.0433,-0.0423,-0.0359,-0.0512,-0.0263,-0.0235,-0.0211,-0.0215,-0.0387,-0.0378,-0.0474,-0.0474,-0.0474,0,0,-0.049,-0.0484,-0.0486,-0.0476,-0.0485,-0.0507,-0.0503,-0.0522,-0.0529,-0.0521,-0.0555,-0.056,-0.0484,-0.0532,-0.0591,-0.0401,-0.0526,-0.0516,-0.0341,-0.0308,-0.0281,-0.028,-0.0638,0,0,0,0,0,-0.0493,-0.0483,-0.0484,-0.0484,-0.0495,-0.0504,-0.0509,-0.0524,-0.0532,-0.0533,-0.0535,-0.0572,-0.0537,-0.0592,-0.0601,-0.0462,-0.0536,-0.0525,-0.0515,-0.0277,-0.024,-0.021,0,0,0,0,0,0,-0.0493,-0.0491,-0.0485,-0.0503,-0.0506,-0.0505,-0.0518,-0.0523,-0.0532,-0.0533,-0.0568,-0.0573,-0.0594,-0.0591,-0.0599,-0.0463,-0.0636,-0.0531,-0.0522,-0.0514,-0.0264,-0.0235,-0.0209,0,0,0,0,0,-0.0493,-0.0492,-0.0497,-0.0504,-0.0507,-0.0526,-0.0518,-0.0522,-0.0531,-0.0562,-0.0568,-0.054,-0.0594,-0.0601,-0.0596,-0.0456,-0.0631,-0.0634,-0.0525,-0.0518,-0.0512,-0.025,0,0,0,0,0,0,-0.0493,-0.0506,-0.0499,-0.0502,-0.0499,-0.0527,-0.0529,-0.0521,-0.0561,-0.0566,-0.0536,-0.0537,-0.0594,-0.06,-0.0605,-0.0446,-0.0627,-0.063,-0.0631,-0.052,-0.0514,-0.0509,0,0,0,0,0,0,-0.0507,-0.0508,-0.0501,-0.0493,-0.0496,-0.0527,-0.0529,-0.0556,-0.0562,-0.0533,-0.0535,-0.0536,-0.0585,-0.0599,-0.0603,-0.0646,-0.0624,-0.0627,-0.0628,-0.0629,-0.0515,-0.0511,0,0,0,0,0,0,-0.0509,-0.0509,-0.0493,-0.0495,-0.0497,-0.0529,-0.0554,-0.0565,-0.0549,-0.0532,-0.0548,-0.0548,-0.0584,-0.0589,-0.0601,-0.0642,-0.0645,-0.0624,-0.0626,-0.0627,-0.0628,0,0,0,0,0,0,0,-0.051,-0.0492,-0.048,-0.0496,-0.0497,-0.0525,-0.0526,-0.0527,-0.0549,-0.0549,-0.0548,-0.0548,-0.061,-0.0613,-0.0615,-0.0639,0,0,-0.0624,-0.0625,0,0,0,0,0,0,0,0,-0.0493,-0.0492,-0.0481,-0.0481,-0.0481,-0.0525,-0.0526,-0.0527,-0.0549,-0.0549,-0.0549,-0.0548,-0.0611,-0.0613,-0.0615,0,0,0,0,0,0,0,0,0,0,0,0,0,0,0,-0.0481,-0.0481,0,-0.0526,-0.0526,-0.0527,-0.0549,-0.0549,-0.0549,-0.0548,-0.0611,-0.0613,-0.0615,0,0,0,0,0,0,0,0,0,0,0,0,0,0,0,0,0,0,0,0,0,0,0,0,0,0,0,0,0,0,0,0,0,0,0,0,0,0,0,0,0,0,0,0,0,0,0,0,0,0,0,0,0,0,0,0,0,0,0,0,0,0,0,0,0,0,0,0,0]}],[{"header":{"parameterUnit":"kt","parameterCategory":2,"dx":1,"dy":1,"la1":30.253999710083008,"la2":30.299108505249023,"lo1":-89.0895004272461,"lo2":-89.04439544677734,"nx":28,"ny":28,"refTime":"2022-10-12T21:00:00:Z","depth":"4","parameterNumber":3,"parameterNumberName":"V-component_of_CURRENTS"},"data":[0.1075,0.1239,0.1333,0.1563,0.1732,0.1881,0.1895,0.1766,0.1596,0.1381,0.1164,0.1012,0.0637,0.0725,0.0292,0.0226,0.021,-0.0249,-0.0249,-0.0307,-0.031,-0.0313,-0.0248,0,0,0,0,0,0.1047,0.1198,0.1334,0.1546,0.1706,0.1826,0.1808,0.179,0.1593,0.1364,0.1279,0.0954,0.062,0.0294,0.0263,0.0001,-0.0108,-0.0045,-0.0082,-0.0309,-0.0313,-0.0248,0,0,0,0,0,0,0.1031,0.1123,0.1293,0.1492,0.1653,0.1769,0.1809,0.1729,0.1633,0.127,0.1086,0.0711,0.0422,0.0134,-0.0069,-0.0148,-0.0101,-0.0078,-0.0094,-0.01,-0.0014,0.0166,0.0099,0,0,0,0,0,0.105,0.1156,0.1225,0.1448,0.1611,0.1713,0.1824,0.1748,0.1611,0.1461,0.1043,0.0803,0.0413,0.006,-0.007,-0.0223,-0.0405,-0.0416,-0.0415,-0.0303,-0.019,-0.0199,-0.0186,-0.0326,-0.0326,-0.0327,-0.0327,0,0.1108,0.1139,0.129,0.1386,0.1474,0.1677,0.1745,0.1711,0.1612,0.1274,0.1095,0.079,0.0505,0.0061,-0.0211,-0.0384,-0.0373,-0.0427,-0.0308,-0.0193,-0.0206,-0.019,-0.0176,-0.033,-0.033,-0.0329,-0.0329,0,0.1118,0.1145,0.1191,0.1282,0.134,0.1479,0.1587,0.1561,0.1465,0.1264,0.1236,0.0768,0.047,0.0206,-0.0123,-0.0191,-0.0387,-0.0394,-0.0321,-0.0343,-0.019,-0.0174,-0.0334,-0.0333,-0.0333,-0.0332,-0.0331,0,0.1084,0.1102,0.121,0.1233,0.131,0.1358,0.1407,0.1316,0.1199,0.1059,0.0884,0.0655,0.0398,0.0144,0.0046,-0.0145,-0.0239,-0.0178,-0.0207,-0.0181,-0.0165,-0.0196,-0.018,-0.0329,-0.0329,-0.0328,-0.0328,0,0.1088,0.1072,0.1119,0.1126,0.109,0.1168,0.1193,0.1074,0.1009,0.084,0.0747,0.0513,0.0419,0.0275,0.0088,0.0144,-0.0228,-0.02,-0.017,-0.0162,-0.0187,-0.0171,-0.0327,-0.0327,-0.0327,-0.0326,-0.0326,0,0.1033,0.1031,0.1068,0.1047,0.1049,0.1088,0.1027,0.0985,0.0793,0.0739,0.0614,0.0524,0.0337,0.039,0.0112,0.0191,0.0162,0.0044,0.0037,0.009,0.0101,0.0127,0.0005,0.0007,0.001,0.0012,0.0014,0,0.1017,0.1035,0.1008,0.1003,0.0993,0.0944,0.0904,0.0838,0.0766,0.0686,0.0535,0.0479,0.0486,0.0492,0.0362,0.019,0.0138,0.0221,0.0075,0.0072,0.0154,0.0047,0.0125,0.0047,0.0043,0.004,0.0038,0,0.1023,0.0988,0.0995,0.1,0.0946,0.0947,0.0887,0.0789,0.0747,0.0734,0.0665,0.0525,0.0534,0.0464,0.0394,0.028,0.0189,0.0332,0.0325,0.033,0.0017,0.0083,0.007,0.0147,0.0143,0.0139,0.0061,0,0.0999,0.0983,0.0981,0.0948,0.094,0.0909,0.0862,0.0848,0.0868,0.0825,0.0734,0.0659,0.0592,0.0525,0.051,0.0352,0.0407,0.0364,0.0398,0.032,0.0302,0.0284,0.0505,0.0506,0.0506,0.0506,0,0,0.0987,0.0967,0.0948,0.0945,0.094,0.0878,0.0869,0.0824,0.0821,0.0804,0.0873,0.0735,0.0688,0.0498,0.0493,0.0467,0.0462,0.0545,0.0367,0.0352,0.0338,0.0316,0.0299,0.0507,0.0507,0.0507,0.0507,0,0.0964,0.0965,0.0962,0.0939,0.0914,0.0864,0.0865,0.085,0.0852,0.085,0.081,0.0744,0.0736,0.0623,0.0562,0.0487,0.0501,0.0496,0.0501,0.0374,0.0359,0.0345,0.0321,0.0305,0.0508,0.0508,0.0508,0,0.0949,0.0937,0.0937,0.0895,0.0878,0.084,0.0844,0.083,0.0808,0.0811,0.0838,0.0796,0.0714,0.0659,0.0642,0.0665,0.0545,0.06,0.0596,0.061,0.048,0.0462,0.0447,0.0649,0.065,0.0651,0,0,0.0935,0.0935,0.0887,0.0888,0.0874,0.0846,0.0833,0.0827,0.0809,0.0809,0.0829,0.0811,0.0733,0.0732,0.0687,0.0655,0.0623,0.062,0.0613,0.0608,0.0618,0.0488,0.0471,0.0653,0.0653,0.0653,0,0,0.0925,0.0897,0.0901,0.0897,0.0854,0.0807,0.0807,0.0803,0.0792,0.0824,0.0813,0.0811,0.0772,0.0766,0.0803,0.0699,0.0722,0.0715,0.0721,0.0713,0.0706,0.0729,0.0812,0,0,0,0,0,0.0895,0.0896,0.0901,0.0897,0.0862,0.0803,0.0795,0.0792,0.083,0.0811,0.0819,0.083,0.0768,0.0801,0.0796,0.0762,0.0688,0.0682,0.0676,0.0674,0.0665,0.0657,0,0,0,0,0,0,0.0893,0.0889,0.09,0.0858,0.085,0.0804,0.0831,0.0828,0.0831,0.0835,0.0827,0.0828,0.0817,0.0804,0.08,0.0766,0.0813,0.0686,0.068,0.0676,0.0671,0.0663,0.0657,0,0,0,0,0,0.0892,0.0889,0.0843,0.0856,0.085,0.0838,0.0832,0.0831,0.0836,0.0817,0.0819,0.0841,0.0815,0.0814,0.0801,0.0768,0.0816,0.0815,0.0682,0.0678,0.0674,0.0667,0,0,0,0,0,0,0.0891,0.0873,0.0841,0.0837,0.0879,0.084,0.0837,0.0833,0.0819,0.082,0.0829,0.0832,0.0814,0.0813,0.0811,0.0768,0.0819,0.0817,0.0816,0.0679,0.0676,0.0673,0,0,0,0,0,0,0.0875,0.0871,0.0839,0.0867,0.0866,0.0842,0.0839,0.0816,0.0821,0.0831,0.0833,0.0831,0.0834,0.0812,0.0811,0.0772,0.0821,0.0819,0.0818,0.0817,0.0677,0.0674,0,0,0,0,0,0,0.0873,0.0869,0.0867,0.0867,0.0867,0.0824,0.0822,0.0796,0.0816,0.0833,0.0822,0.0825,0.0834,0.0832,0.081,0.0772,0.0772,0.0821,0.0819,0.0819,0.0818,0,0,0,0,0,0,0,0.087,0.0908,0.0866,0.0867,0.0867,0.0805,0.0804,0.0802,0.0817,0.0819,0.0821,0.0823,0.083,0.0828,0.0826,0.0771,0,0,0.0821,0.082,0,0,0,0,0,0,0,0,0.0909,0.0908,0.0866,0.0865,0.0865,0.0805,0.0804,0.0803,0.0817,0.0819,0.0821,0.0823,0.0829,0.0828,0.0826,0,0,0,0,0,0,0,0,0,0,0,0,0,0,0,0.0866,0.0865,0,0.0805,0.0804,0.0803,0.0818,0.0819,0.0821,0.0822,0.0829,0.0828,0.0826,0,0,0,0,0,0,0,0,0,0,0,0,0,0,0,0,0,0,0,0,0,0,0,0,0,0,0,0,0,0,0,0,0,0,0,0,0,0,0,0,0,0,0,0,0,0,0,0,0,0,0,0,0,0,0,0,0,0,0,0,0,0,0,0,0,0,0,0,0]}]]]